Terug naar catalogus

FENGYUN 1C DEB

ActiefSSO
NORAD 32153·DEBRIS·🇨🇳 China

Gelanceerd May 10, 1999 vanaf Taiyuan Satellite Launch Center

Loading…

Volgende Passages (komende 24 uur)

TLE

VersSource: Space-Track

Epoch: Sep 14, 2026, 10:31 UTC

1 32153U 99025CSX 26257.43850680  .00000545  00000-0  12011-3 0  9997
2 32153  98.7415 115.9673 0207518 109.0829 253.2962 14.49240809 12120

Volg FENGYUN 1C DEB in realtime met AllMySat

Download on the App Store